FW7817 Weather Reports


Display with metric or nautical units.
time (UTC)temp
F
wind
direction
speed
MPH
gust
MPH
rain 1hr
in
rain 24hr
in
rain mn
in
humidity
%
barometer
mb
20260509002358 66 312 1.0 4.0 0.00 0.01 0.01 72 1009.0
20260509001900 66 311 1.0 4.0 0.00 0.01 0.01 72 1008.8
20260509000858 66 233 0.0 3.0 0.00 0.01 0.01 72 1008.8
20260509000358 66 232 1.0 4.0 0.00 0.01 0.01 72 1008.8
20260508235856 66 223 2.0 4.0 0.00 0.01 0.01 72 1008.9
20260508235356 67 301 1.0 4.0 0.00 0.01 0.01 72 1008.9
20260508234858 67 288 1.0 3.0 0.00 0.01 0.01 73 1009.0
20260508234357 67 265 1.0 4.0 0.00 0.01 0.01 73 1008.9
20260508233858 67 231 1.0 4.0 0.00 0.01 0.01 72 1008.9
20260508233357 67 244 2.0 4.0 0.00 0.01 0.01 72 1008.8
20260508232858 67 227 1.0 4.0 0.00 0.01 0.01 73 1008.7
20260508232357 67 311 1.0 4.0 0.00 0.01 0.01 72 1008.9
20260508231857 67 246 1.0 4.0 0.00 0.01 0.01 71 1008.9
20260508231358 68 281 1.0 4.0 0.00 0.01 0.01 71 1008.9
20260508230857 68 309 2.0 4.0 0.00 0.01 0.01 70 1009.0
20260508230357 68 298 2.0 5.0 0.00 0.01 0.01 70 1009.1
20260508225856 69 221 1.0 5.0 0.00 0.01 0.01 69 1009.1
20260508225358 69 227 1.0 6.0 0.00 0.01 0.01 69 1009.0
20260508224358 68 219 1.0 5.0 0.00 0.01 0.01 71 1008.9
20260508223857 68 147 1.0 3.0 0.00 0.01 0.01 72 1009.0
20260508223356 67 229 1.0 3.0 0.00 0.01 0.01 75 1009.0
20260508222857 67 228 0.0 2.0 0.00 0.01 0.01 75 1009.0
20260508222355 66 227 0.0 3.0 0.00 0.01 0.01 75 1009.0
20260508221855 66 245 1.0 4.0 0.00 0.01 0.01 77 1008.9
20260508221354 65 244 1.0 4.0 0.00 0.01 0.01 78 1008.9
20260508220854 65 146 0.0 3.0 0.00 0.01 0.01 81 1008.8
20260508220357 64 146 0.0 3.0 0.00 0.01 0.01 81 1008.9
20260508215853 64 157 0.0 3.0 0.01 0.01 0.01 80 1008.8
20260508215354 63 156 1.0 3.0 0.01 0.01 0.01 80 1008.9
20260508214851 63 157 1.0 3.0 0.01 0.01 0.01 81 1008.8
20260508214346 63 148 1.0 3.0 0.01 0.01 0.01 81 1008.8
20260508213839 63 64 1.0 3.0 0.01 0.01 0.01 83 1008.9
20260508213333 62 65 1.0 6.0 0.01 0.01 0.01 84 1008.7
20260508212829 62 65 3.0 7.0 0.01 0.01 0.01 83 1008.5
20260508212321 62 136 3.0 7.0 0.01 0.01 0.01 83 1008.3
20260508211816 62 98 2.0 5.0 0.01 0.01 0.01 83 1008.4
20260508211310 62 118 1.0 2.0 0.01 0.01 0.01 83 1008.9
20260508210804 62 90 0.0 3.0 0.01 0.01 0.01 82 1009.3
20260508210258 62 90 0.0 3.0 0.01 0.01 0.01 82 1009.4
20260508205754 62 23 0.0 2.0 0.00 0.00 0.00 81 1009.6
20260508205246 63 20 1.0 2.0 0.00 0.00 0.00 80 1009.7
20260508204740 63 30 1.0 3.0 0.00 0.00 0.00 79 1010.0
20260508204234 63 59 1.0 4.0 0.00 0.00 0.00 79 1010.0
20260508203728 63 338 0.0 6.0 0.00 0.00 0.00 79 1010.1
20260508203221 63 306 1.0 6.0 0.00 0.00 0.00 79 1010.1
20260508202716 63 306 2.0 6.0 0.00 0.00 0.00 78 1010.1
20260508202209 64 327 2.0 6.0 0.00 0.00 0.00 77 1010.2
20260508201704 64 302 2.0 5.0 0.00 0.00 0.00 78 1010.2
20260508201157 64 307 1.0 4.0 0.00 0.00 0.00 77 1010.3
20260508200653 64 294 0.0 4.0 0.00 0.00 0.00 77 1010.4
20260508200146 64 205 0.0 1.0 0.00 0.00 0.00 76 1010.3
20260508195640 64 205 0.0 2.0 0.00 0.00 0.00 76 1010.3
20260508195133 64 205 0.0 2.0 0.00 0.00 0.00 76 1010.3
20260508194628 64 205 0.0 2.0 0.00 0.00 0.00 75 1010.3
20260508194124 64 205 0.0 2.0 0.00 0.00 0.00 74 1010.4
20260508193616 64 205 0.0 2.0 0.00 0.00 0.00 74 1010.4
20260508193110 64 205 1.0 2.0 0.00 0.00 0.00 74 1010.5
20260508192604 64 205 1.0 2.0 0.00 0.00 0.00 74 1010.4
20260508192059 64 140 0.0 2.0 0.00 0.00 0.00 74 1010.2
20260508191552 64 140 0.0 2.0 0.00 0.00 0.00 74 1010.2
20260508191046 64 140 0.0 1.0 0.00 0.00 0.00 74 1010.3
20260508190033 64 140 0.0 2.0 0.00 0.00 0.00 73 1010.1
20260508185529 64 140 0.0 2.0 0.00 0.00 0.00 72 1009.8
20260508185022 64 140 0.0 2.0 0.00 0.00 0.00 71 1009.7
20260508184515 64 140 0.0 1.0 0.00 0.00 0.00 71 1009.5
20260508184011 64 140 0.0 2.0 0.00 0.00 0.00 71 1009.4
20260508183503 64 140 0.0 4.0 0.00 0.00 0.00 72 1009.7
20260508182959 64 141 1.0 5.0 0.00 0.00 0.00 73 1009.7
20260508182452 64 164 1.0 5.0 0.00 0.00 0.00 72 1009.8
20260508181946 64 159 1.0 4.0 0.00 0.00 0.00 72 1009.8
20260508181440 64 161 0.0 4.0 0.00 0.00 0.00 73 1009.8
20260508180945 64 167 0.0 3.0 0.00 0.00 0.00 72 1009.8
20260508180440 64 167 0.0 3.0 0.00 0.00 0.00 71 1009.6
20260508175940 64 229 0.0 2.0 0.00 0.00 0.00 72 1009.7
20260508175445 64 207 0.0 1.0 0.00 0.00 0.00 72 1009.7
20260508174941 64 207 0.0 4.0 0.00 0.00 0.00 72 1009.7
20260508174441 64 208 0.0 4.0 0.00 0.00 0.00 71 1010.1
20260508173940 64 248 0.0 3.0 0.00 0.00 0.00 71 1010.1
20260508173438 64 124 1.0 2.0 0.00 0.00 0.00 71 1010.0
20260508172938 64 124 1.0 2.0 0.00 0.00 0.00 69 1009.7
20260508172439 64 124 0.0 2.0 0.00 0.00 0.00 68 1009.7
20260508171936 64 124 0.0 2.0 0.00 0.00 0.00 68 1009.7
20260508171433 64 124 0.0 2.0 0.00 0.00 0.00 68 1010.1
20260508170934 64 124 0.0 2.0 0.00 0.00 0.00 68 1010.1
20260508170434 64 121 0.0 3.0 0.00 0.00 0.00 67 1010.2
20260508165934 64 118 1.0 3.0 0.00 0.00 0.00 67 1010.3
20260508164431 64 98 2.0 4.0 0.00 0.00 0.00 66 1010.1
20260508163924 64 112 1.0 4.0 0.00 0.00 0.00 66 1010.2
20260508163418 64 133 1.0 5.0 0.00 0.00 0.00 68 1010.2
20260508162914 63 128 1.0 5.0 0.00 0.00 0.00 68 1010.1
20260508162411 63 139 1.0 3.0 0.00 0.00 0.00 70 1010.6
20260508161903 63 137 1.0 3.0 0.00 0.00 0.00 70 1010.8
20260508161355 63 138 1.0 4.0 0.00 0.00 0.00 69 1010.5
20260508160851 63 217 1.0 4.0 0.00 0.00 0.00 70 1011.0
20260508155852 62 126 0.0 1.0 0.00 0.00 0.00 68 1009.7
20260508155352 62 126 0.0 2.0 0.00 0.00 0.00 68 1009.7
20260508154852 62 126 0.0 2.0 0.00 0.00 0.00 67 1009.8
20260508154352 62 127 1.0 3.0 0.00 0.00 0.00 68 1010.2
20260508153853 62 132 1.0 3.0 0.00 0.00 0.00 68 1010.2
20260508153352 62 186 0.0 2.0 0.00 0.00 0.00 67 1010.7
20260508152852 62 186 0.0 2.0 0.00 0.00 0.00 66 1010.7
20260508152350 62 185 0.0 2.0 0.00 0.00 0.00 67 1010.7
20260508151354 62 238 1.0 6.0 0.00 0.00 0.00 67 1010.7
20260508150851 62 226 0.0 2.0 0.00 0.00 0.00 68 1010.7
20260508150349 62 224 0.0 3.0 0.00 0.00 0.00 67 1010.4
20260508145847 62 225 0.0 3.0 0.00 0.00 0.00 67 1010.3
20260508145356 62 207 0.0 3.0 0.00 0.00 0.00 68 1010.4
20260508144843 61 186 0.0 2.0 0.00 0.00 0.00 67 1010.2
20260508144344 61 186 0.0 2.0 0.00 0.00 0.00 68 1010.2
20260508143344 61 194 0.0 1.0 0.00 0.00 0.00 68 1010.3
20260508142843 61 194 0.0 3.0 0.00 0.00 0.00 67 1010.2
20260508142344 61 194 0.0 3.0 0.00 0.00 0.00 67 1010.2
20260508141844 60 245 0.0 1.0 0.00 0.00 0.00 67 1010.2
20260508141343 60 245 0.0 1.0 0.00 0.00 0.00 67 1010.2
20260508140845 60 244 0.0 2.0 0.00 0.00 0.00 67 1010.2
20260508140340 60 245 0.0 2.0 0.00 0.00 0.00 67 1010.2
20260508135339 60 248 1.0 3.0 0.00 0.00 0.00 66 1010.1
20260508134841 60 234 1.0 3.0 0.00 0.00 0.00 66 1010.1
20260508134339 60 228 1.0 3.0 0.00 0.00 0.00 67 1010.1
20260508133840 60 271 1.0 3.0 0.00 0.00 0.00 66 1010.2
20260508133339 60 200 1.0 2.0 0.00 0.00 0.00 66 1010.1
20260508132839 60 194 1.0 2.0 0.00 0.00 0.00 67 1010.1
20260508132340 60 194 1.0 6.0 0.00 0.00 0.00 67 1010.1
20260508131340 59 232 1.0 4.0 0.00 0.00 0.00 66 1010.2
20260508130840 59 251 1.0 6.0 0.00 0.00 0.00 66 1010.1
20260508130337 59 255 1.0 6.0 0.00 0.00 0.00 66 1010.2
20260508125837 59 234 1.0 4.0 0.00 0.00 0.00 66 1010.1
20260508124840 58 194 1.0 4.0 0.00 0.00 0.00 66 1010.1
20260508124337 58 231 0.0 1.0 0.00 0.00 0.00 67 1010.2
20260508123835 58 230 0.0 1.0 0.00 0.00 0.00 67 1010.1
20260508123335 58 237 0.0 1.0 0.00 0.00 0.00 65 1010.2
20260508122836 58 237 0.0 1.0 0.00 0.00 0.00 65 1010.0
20260508121835 58 237 1.0 6.0 0.00 0.00 0.00 66 1010.0
20260508121334 58 260 2.0 6.0 0.00 0.00 0.00 66 1009.8
20260508120834 58 190 1.0 4.0 0.00 0.00 0.00 67 1009.7
20260508120334 58 233 1.0 5.0 0.00 0.00 0.00 66 1009.7
20260508115325 58 165 1.0 6.0 0.00 0.00 0.00 66 1009.5
20260508114819 58 158 1.0 3.0 0.00 0.00 0.00 65 1009.3
20260508114313 58 176 1.0 4.0 0.00 0.00 0.00 65 1009.3
20260508113807 58 165 1.0 4.0 0.00 0.00 0.00 65 1009.3
20260508113300 58 196 1.0 3.0 0.00 0.00 0.00 65 1009.4
20260508112755 58 92 1.0 3.0 0.00 0.00 0.00 65 1009.4
20260508112248 58 203 1.0 3.0 0.00 0.00 0.00 65 1009.5
20260508111744 58 130 1.0 9.0 0.00 0.00 0.00 65 1009.5
20260508110730 58 188 1.0 7.0 0.00 0.00 0.00 64 1009.3
20260508110225 58 268 1.0 4.0 0.00 0.00 0.00 64 1009.4
20260508105719 58 157 1.0 4.0 0.00 0.00 0.00 65 1009.4
20260508105213 57 190 1.0 3.0 0.00 0.00 0.00 65 1009.5
20260508104708 57 155 1.0 4.0 0.00 0.00 0.00 65 1009.5
20260508104201 57 271 1.0 4.0 0.00 0.00 0.00 66 1009.5
20260508103150 57 195 0.0 3.0 0.00 0.00 0.00 66 1009.6
20260508102642 57 173 1.0 4.0 0.00 0.00 0.00 66 1009.7
20260508101630 57 194 1.0 8.0 0.00 0.00 0.00 66 1010.1
20260508101126 57 261 1.0 3.0 0.00 0.00 0.00 67 1009.8
20260508100619 57 271 1.0 3.0 0.00 0.00 0.00 66 1009.8
20260508100113 57 163 1.0 6.0 0.00 0.00 0.00 67 1009.6
20260508095606 57 205 1.0 6.0 0.00 0.00 0.00 67 1009.8
20260508095101 57 209 1.0 6.0 0.00 0.00 0.00 67 1010.0
20260508094555 57 171 1.0 7.0 0.00 0.00 0.00 67 1010.0
20260508093543 57 244 1.0 5.0 0.00 0.00 0.00 67 1009.7
20260508093036 57 196 1.0 4.0 0.00 0.00 0.00 67 1009.7
20260508092531 57 95 1.0 7.0 0.00 0.00 0.00 67 1009.6
20260508092025 57 162 1.0 7.0 0.00 0.00 0.00 66 1009.4
20260508085455 58 215 0.0 2.0 0.00 0.00 0.00 64 1010.0
20260508083938 58 216 1.0 4.0 0.00 0.00 0.00 63 1009.7
20260508083432 58 259 1.0 4.0 0.00 0.00 0.00 62 1009.8
20260508082925 59 271 1.0 4.0 0.00 0.00 0.00 62 1009.7
20260508081913 59 194 1.0 8.0 0.00 0.00 0.00 61 1009.7
20260508081407 59 143 0.0 7.0 0.00 0.00 0.00 61 1009.8
20260508080355 60 87 1.0 4.0 0.00 0.00 0.00 61 1010.0
20260508074332 60 226 0.0 3.0 0.00 0.00 0.00 60 1010.2
20260508073828 60 218 0.0 5.0 0.00 0.00 0.00 60 1010.3
20260508073328 60 171 1.0 5.0 0.00 0.00 0.00 60 1010.4
20260508072827 60 202 0.0 3.0 0.00 0.00 0.00 60 1010.5
20260508072328 60 197 0.0 3.0 0.00 0.00 0.00 59 1010.5
20260508071826 61 155 0.0 3.0 0.00 0.00 0.00 59 1010.6
20260508071326 61 183 1.0 3.0 0.00 0.00 0.00 59 1010.7
20260508070327 61 153 1.0 4.0 0.00 0.00 0.00 58 1010.8
20260508065325 61 151 1.0 3.0 0.00 0.00 0.00 57 1010.8
20260508063321 62 279 1.0 4.0 0.00 0.00 0.00 57 1011.1
20260508062821 62 154 2.0 7.0 0.00 0.00 0.00 56 1011.2
20260508062321 62 137 1.0 7.0 0.00 0.00 0.00 57 1011.3
20260508061821 61 150 1.0 7.0 0.00 0.00 0.00 58 1011.2
20260508060821 61 223 1.0 6.0 0.00 0.00 0.00 59 1011.5
20260508060322 61 273 1.0 3.0 0.00 0.00 0.00 59 1011.8
20260508055821 61 128 1.0 4.0 0.00 0.00 0.00 59 1011.8
20260508055321 61 178 1.0 6.0 0.00 0.00 0.00 59 1011.8
20260508054821 61 165 1.0 6.0 0.00 0.00 0.00 60 1011.8
20260508053821 61 218 2.0 6.0 0.00 0.00 0.00 61 1011.8
20260508053322 61 153 2.0 7.0 0.00 0.00 0.00 61 1011.7
20260508052321 60 136 1.0 4.0 0.00 0.00 0.00 61 1011.4
20260508051821 60 165 1.0 6.0 0.00 0.00 0.00 61 1011.3
20260508050820 60 215 1.0 8.0 0.00 0.00 0.00 62 1011.3
20260508050314 60 142 1.0 4.0 0.00 0.00 0.00 62 1011.4
20260508045808 60 97 1.0 4.0 0.00 0.00 0.00 62 1011.4
20260508045306 60 171 1.0 4.0 0.00 0.00 0.00 61 1011.4
20260508044757 60 132 1.0 3.0 0.00 0.00 0.00 61 1011.5
20260508044252 60 177 1.0 3.0 0.00 0.00 0.00 61 1011.5
20260508043746 60 146 1.0 3.0 0.00 0.00 0.00 61 1011.5
20260508043240 60 132 0.0 4.0 0.00 0.00 0.00 61 1011.5
20260508042733 60 132 1.0 4.0 0.00 0.00 0.00 61 1011.6
20260508041722 61 150 1.0 8.0 0.00 0.00 0.00 60 1011.5
20260508041216 61 178 1.0 8.0 0.00 0.00 0.00 60 1011.5
20260508040710 61 142 2.0 6.0 0.00 0.00 0.00 60 1011.5
20260508040204 61 169 2.0 6.0 0.00 0.00 0.00 60 1012.0
20260508035657 61 202 2.0 7.0 0.00 0.00 0.00 60 1011.5
20260508035151 61 189 2.0 7.0 0.00 0.00 0.00 59 1011.5
20260508034646 62 164 2.0 9.0 0.00 0.00 0.00 59 1011.5
20260508034139 62 121 2.0 9.0 0.00 0.00 0.00 59 1011.6
20260508033633 62 153 2.0 9.0 0.00 0.00 0.00 59 1011.5
20260508033127 62 156 2.0 9.0 0.00 0.00 0.00 58 1011.5
20260508032621 62 144 2.0 5.0 0.00 0.00 0.00 58 1011.5
20260508032114 62 138 2.0 5.0 0.00 0.00 0.00 59 1011.5
20260508031610 62 128 1.0 4.0 0.00 0.00 0.00 58 1011.4
20260508031103 62 136 1.0 4.0 0.00 0.00 0.00 59 1011.5
20260508030052 62 140 1.0 7.0 0.00 0.00 0.00 58 1011.3
20260508025546 63 150 1.0 4.0 0.00 0.00 0.00 57 1011.3
20260508025040 63 151 2.0 4.0 0.00 0.00 0.00 57 1011.3
20260508024532 63 128 1.0 4.0 0.00 0.00 0.00 57 1011.2
20260508024027 63 151 1.0 4.0 0.00 0.00 0.00 56 1011.1
20260508023521 63 123 2.0 5.0 0.00 0.00 0.00 56 1011.1
20260508023015 64 155 2.0 5.0 0.00 0.00 0.00 55 1011.1
20260508022508 64 171 1.0 4.0 0.00 0.00 0.00 55 1011.1
20260508022003 64 152 1.0 3.0 0.00 0.00 0.00 54 1011.0
20260508021456 65 150 1.0 7.0 0.00 0.00 0.00 54 1010.9
20260508020952 65 178 1.0 7.0 0.00 0.00 0.00 53 1010.8
20260508020445 65 165 1.0 5.0 0.00 0.00 0.00 52 1010.7
20260508015941 65 162 2.0 6.0 0.00 0.00 0.00 52 1010.7
20260508015441 65 161 2.0 6.0 0.00 0.00 0.00 52 1010.7
20260508014941 66 151 2.0 5.0 0.00 0.00 0.00 51 1010.7
20260508013938 66 174 1.0 4.0 0.00 0.00 0.00 50 1010.5
20260508013439 66 138 1.0 4.0 0.00 0.00 0.00 50 1010.5
20260508012938 67 141 1.0 4.0 0.00 0.00 0.00 49 1010.4
20260508012437 67 153 1.0 5.0 0.00 0.00 0.00 49 1010.5
20260508011937 67 148 0.0 5.0 0.00 0.00 0.00 49 1010.5
20260508010435 67 151 1.0 3.0 0.00 0.00 0.00 48 1010.4
20260508005933 68 151 0.0 3.0 0.00 0.00 0.00 48 1010.4
20260508005431 68 207 0.0 1.0 0.00 0.00 0.00 47 1010.4
20260508004928 68 207 0.0 1.0 0.00 0.00 0.00 47 1010.4
20260508004428 69 207 0.0 2.0 0.00 0.00 0.00 46 1010.4
20260508003924 69 207 0.0 2.0 0.00 0.00 0.00 46 1010.4
20260508003424 69 179 0.0 2.0 0.00 0.00 0.00 46 1010.4